Temp
-13 -14 -14 -14 -14 -15 -15 -15 -15 -15 -15 -15 -15 -15 -15 -15 -14 -14 -14 -14 -14 -14 -14 -14 -14 -14 -14 -14 -13 -13 -12 -12 -11 -11 -11 -10 -10 -10 -9 -9 -8 -8 -9 -9 -8 -7 -5 -5 -4 -4 -3 -3 -3 -3 -3 -3 -3 -3 -3 -3 -3 -2 -2 -2 -2 -2 -2 -2 -2 -2 -2 -2 -2 -2
-14 -14 -14 -14 -15 -15 -15 -15 -15 -15 -15 -15 -15 -15 -15 -15 -15 -14 -14 -14 -14 -14 -14 -14 -14 -14 -14 -14 -13 -13 -13 -12 -12 -11 -11 -11 -10 -10 -9 -9 -8 -8 -8 -9 -9 -8 -7 -5 -5 -4 -4 -3 -3 -3 -3 -3 -3 -4 -4 -4 -3 -3 -3 -2 -2 -2 -2 -2 -2 -2 -2 -2 -2 -2
-14 -14 -14 -14 -15 -15 -15 -15 -15 -15 -15 -15 -15 -15 -15 -15 -15 -15 -15 -14 -14 -14 -14 -14 -14 -14 -14 -14 -14 -13 -13 -12 -12 -11 -11 -11 -10 -10 -10 -9 -9 -8 -8 -8 -9 -9 -8 -6 -6 -5 -5 -4 -4 -4 -3 -3 -3 -4 -4 -4 -4 -4 -3 -3 -3 -3 -3 -3 -3 -3 -3 -3 -2 -2
-14 -14 -14 -15 -15 -15 -15 -15 -15 -16 -15 -15 -16 -16 -16 -15 -15 -15 -15 -14 -14 -15 -14 -14 -14 -14 -14 -14 -14 -13 -13 -13 -12 -12 -11 -11 -11 -10 -10 -10 -9 -9 -8 -8 -9 -9 -9 -8 -7 -6 -5 -5 -4 -4 -4 -4 -4 -4 -4 -4 -4 -4 -4 -4 -3 -3 -3 -3 -3 -3 -3 -3 -3 -3
-14 -14 -15 -15 -15 -15 -15 -15 -16 -16 -16 -15 -16 -16 -16 -16 -16 -16 -15 -15 -14 -15 -15 -14 -14 -14 -14 -14 -14 -14 -14 -13 -13 -12 -12 -11 -11 -11 -10 -10 -9 -9 -9 -8 -8 -9 -9 -8 -8 -7 -6 -6 -5 -5 -5 -5 -4 -4 -4 -5 -5 -5 -4 -4 -4 -4 -3 -3 -3 -3 -4 -3 -3 -3
-15 -15 -15 -15 -15 -15 -15 -16 -16 -16 -16 -16 -16 -16 -16 -16 -16 -16 -16 -15 -15 -15 -15 -14 -14 -14 -14 -14 -14 -14 -14 -14 -13 -13 -12 -12 -12 -11 -11 -10 -9 -9 -9 -9 -8 -8 -9 -9 -8 -8 -7 -7 -6 -5 -6 -6 -5 -4 -5 -5 -5 -5 -5 -4 -4 -4 -4 -4 -3 -3 -4 -4 -3 -3
-15 -15 -15 -15 -15 -15 -15 -16 -16 -16 -16 -16 -16 -16 -16 -16 -16 -16 -16 -16 -15 -15 -15 -15 -14 -14 -14 -14 -14 -14 -14 -14 -14 -13 -13 -12 -12 -12 -11 -10 -10 -9 -9 -9 -9 -9 -9 -9 -8 -8 -8 -7 -7 -6 -6 -6 -6 -5 -5 -5 -5 -6 -6 -5 -5 -5 -5 -4 -4 -4 -4 -4 -4 -4
-15 -15 -15 -15 -15 -15 -15 -16 -16 -16 -16 -16 -16 -16 -17 -16 -16 -16 -16 -16 -16 -15 -15 -15 -15 -14 -14 -14 -14 -14 -14 -14 -14 -14 -13 -13 -12 -12 -12 -11 -10 -10 -9 -9 -9 -9 -9 -9 -9 -8 -8 -8 -7 -7 -7 -7 -6 -6 -6 -6 -6 -6 -6 -6 -5 -5 -5 -4 -4 -4 -4 -4 -4 -4
-16 -15 -15 -16 -16 -15 -16 -16 -16 -16 -16 -16 -16 -17 -17 -17 -17 -17 -16 -16 -16 -16 -15 -15 -15 -15 -14 -14 -14 -14 -14 -14 -14 -14 -14 -13 -13 -12 -12 -12 -11 -10 -10 -9 -9 -9 -9 -9 -9 -9 -9 -8 -8 -7 -7 -7 -7 -7 -6 -6 -6 -6 -6 -6 -6 -5 -5 -4 -4 -4 -4 -4 -4 -4
-16 -16 -16 -16 -16 -16 -16 -16 -16 -16 -16 -16 -17 -17 -17 -17 -17 -17 -17 -16 -16 -16 -16 -15 -15 -15 -15 -14 -14 -15 -14 -14 -14 -14 -14 -14 -13 -13 -13 -12 -12 -11 -11 -10 -10 -9 -9 -9 -9 -9 -9 -9 -8 -8 -8 -7 -7 -7 -7 -6 -6 -6 -6 -6 -6 -5 -5 -5 -5 -4 -4 -4 -5 -4
-16 -16 -16 -16 -16 -16 -16 -16 -16 -16 -16 -16 -17 -17 -17 -17 -17 -17 -17 -17 -16 -16 -16 -16 -15 -15 -15 -14 -14 -15 -15 -14 -14 -14 -14 -14 -14 -14 -13 -13 -12 -12 -11 -11 -10 -10 -10 -10 -10 -9 -9 -9 -9 -9 -8 -8 -8 -7 -7 -7 -7 -6 -6 -6 -6 -6 -5 -5 -5 -5 -5 -4 -4 -5
-16 -16 -16 -16 -16 -16 -17 -16 -16 -16 -16 -16 -17 -17 -17 -17 -17 -17 -17 -17 -16 -16 -16 -16 -15 -15 -15 -15 -15 -15 -15 -15 -14 -14 -14 -14 -14 -14 -13 -13 -13 -13 -12 -12 -11 -10 -10 -10 -10 -10 -10 -9 -9 -9 -9 -9 -9 -8 -8 -8 -7 -7 -6 -6 -6 -6 -6 -5 -5 -5 -5 -5 -4 -4
-17 -17 -17 -17 -17 -17 -17 -17 -16 -16 -16 -16 -17 -17 -17 -17 -17 -17 -17 -17 -17 -16 -16 -16 -16 -15 -15 -15 -15 -15 -15 -15 -15 -14 -14 -14 -14 -14 -14 -14 -14 -13 -13 -13 -13 -12 -11 -10 -10 -10 -10 -10 -9 -9 -9 -9 -9 -9 -8 -8 -8 -8 -7 -7 -6 -6 -6 -6 -6 -6 -5 -5 -5 -4
-17 -17 -17 -17 -17 -17 -17 -17 -17 -17 -16 -16 -17 -17 -17 -17 -17 -17 -17 -17 -16 -16 -16 -16 -16 -15 -15 -15 -15 -15 -15 -15 -15 -15 -14 -14 -14 -14 -14 -14 -15 -15 -15 -14 -14 -13 -12 -11 -11 -11 -10 -10 -10 -10 -9 -9 -9 -9 -9 -9 -9 -9 -8 -8 -7 -7 -6 -6 -6 -6 -6 -5 -5 -5
-17 -17 -17 -17 -17 -17 -17 -17 -17 -17 -17 -17 -17 -17 -17 -17 -17 -17 -17 -17 -16 -16 -16 -16 -16 -16 -15 -15 -15 -15 -15 -15 -14 -14 -14 -14 -14 -14 -14 -14 -15 -16 -16 -15 -14 -14 -13 -12 -11 -10 -10 -10 -10 -10 -10 -10 -10 -10 -9 -9 -9 -9 -10 -9 -8 -8 -7 -7 -6 -6 -6 -6 -6 -5
-18 -17 -18 -18 -18 -18 -18 -18 -18 -17 -17 -17 -17 -17 -17 -17 -17 -17 -17 -17 -17 -17 -16 -16 -16 -16 -16 -15 -15 -15 -15 -15 -15 -14 -14 -14 -14 -14 -15 -15 -16 -17 -17 -16 -15 -14 -14 -13 -12 -11 -11 -10 -10 -10 -10 -10 -10 -10 -10 -9 -9 -9 -10 -10 -10 -9 -8 -7 -7 -7 -7 -6 -6 -6
-18 -18 -18 -18 -18 -18 -18 -18 -18 -18 -18 -17 -17 -17 -18 -18 -18 -17 -17 -17 -17 -17 -17 -17 -16 -16 -16 -16 -15 -15 -15 -15 -15 -15 -15 -15 -15 -15 -15 -16 -16 -17 -17 -17 -16 -15 -15 -15 -14 -13 -12 -11 -10 -10 -10 -10 -11 -10 -10 -9 -9 -9 -9 -9 -10 -10 -9 -9 -8 -8 -7 -7 -6 -6
-18 -18 -18 -18 -18 -18 -18 -18 -18 -18 -18 -18 -17 -18 -18 -18 -18 -18 -18 -17 -17 -17 -17 -17 -17 -16 -16 -16 -16 -15 -15 -15 -15 -15 -15 -15 -15 -16 -16 -17 -17 -18 -18 -18 -18 -17 -16 -16 -15 -14 -14 -12 -11 -11 -10 -11 -11 -10 -10 -10 -9 -9 -9 -9 -9 -10 -10 -10 -9 -9 -8 -8 -7 -7
-19 -19 -19 -18 -19 -19 -19 -19 -19 -19 -18 -18 -18 -18 -18 -19 -18 -18 -18 -18 -18 -18 -17 -17 -17 -16 -16 -16 -16 -16 -16 -16 -16 -16 -16 -16 -16 -16 -17 -17 -18 -18 -19 -19 -18 -18 -18 -18 -17 -16 -15 -14 -13 -12 -11 -11 -11 -11 -10 -10 -10 -10 -10 -9 -9 -9 -10 -10 -10 -9 -9 -9 -8 -8
-19 -19 -19 -19 -19 -19 -19 -19 -19 -19 -19 -19 -19 -19 -19 -19 -19 -18 -18 -18 -18 -18 -18 -18 -17 -17 -17 -17 -17 -16 -16 -16 -16 -16 -16 -16 -16 -17 -17 -18 -18 -19 -19 -19 -19 -19 -19 -19 -18 -17 -17 -16 -15 -14 -13 -12 -12 -11 -11 -11 -11 -11 -11 -10 -10 -10 -9 -10 -10 -10 -10 -10 -9 -9
-19 -19 -19 -19 -19 -19 -20 -19 -19 -19 -19 -19 -19 -19 -19 -19 -19 -19 -18 -18 -18 -18 -18 -18 -18 -18 -17 -17 -17 -17 -17 -17 -17 -16 -16 -17 -17 -17 -17 -18 -19 -19 -19 -19 -19 -20 -20 -19 -19 -19 -18 -17 -16 -15 -15 -13 -13 -12 -12 -12 -12 -12 -12 -11 -11 -11 -10 -10 -10 -10 -10 -10 -10 -10
-20 -20 -20 -20 -20 -20 -20 -20 -19 -19 -19 -20 -20 -20 -19 -19 -19 -19 -18 -18 -18 -18 -18 -18 -18 -18 -18 -17 -17 -17 -17 -17 -17 -17 -17 -17 -17 -17 -18 -18 -19 -20 -20 -20 -20 -20 -21 -21 -20 -20 -19 -19 -17 -17 -16 -15 -14 -13 -13 -12 -12 -12 -12 -12 -11 -11 -11 -10 -10 -10 -10 -10 -10 -10
-20 -20 -20 -20 -20 -20 -20 -20 -20 -20 -20 -20 -20 -20 -20 -19 -19 -19 -19 -18 -18 -18 -18 -18 -18 -18 -18 -18 -18 -17 -17 -17 -17 -17 -18 -18 -17 -18 -18 -19 -19 -20 -20 -20 -21 -21 -22 -22 -21 -21 -20 -20 -19 -18 -17 -16 -15 -14 -14 -13 -13 -13 -12 -12 -12 -11 -11 -11 -10 -10 -10 -10 -10 -10
-20 -20 -20 -20 -20 -20 -21 -21 -21 -20 -20 -21 -21 -20 -20 -20 -20 -19 -19 -19 -19 -18 -19 -19 -18 -18 -18 -18 -18 -18 -18 -18 -18 -18 -18 -18 -18 -18 -19 -19 -19 -20 -21 -21 -21 -22 -22 -22 -22 -21 -21 -20 -20 -19 -18 -18 -17 -16 -15 -14 -13 -13 -13 -13 -12 -12 -12 -11 -11 -11 -10 -10 -10 -10
-21 -20 -20 -20 -20 -20 -21 -21 -21 -21 -21 -21 -20 -20 -20 -20 -20 -19 -19 -19 -19 -18 -19 -19 -18 -18 -18 -18 -18 -18 -18 -18 -18 -18 -19 -19 -19 -19 -19 -19 -20 -20 -21 -22 -22 -22 -22 -22 -21 -21 -21 -21 -20 -20 -20 -19 -18 -17 -16 -15 -14 -14 -13 -13 -13 -12 -12 -12 -11 -11 -11 -11 -10 -10
-21 -21 -21 -20 -20 -21 -21 -22 -22 -21 -21 -21 -20 -20 -20 -21 -20 -20 -19 -19 -19 -19 -19 -19 -19 -19 -19 -18 -19 -19 -19 -19 -19 -19 -19 -19 -19 -19 -19 -20 -20 -21 -22 -22 -23 -23 -22 -22 -21 -21 -21 -21 -21 -20 -20 -20 -19 -19 -18 -17 -15 -15 -14 -13 -13 -13 -13 -12 -12 -12 -11 -11 -11 -11
-21 -21 -21 -21 -21 -21 -22 -22 -22 -22 -21 -21 -20 -20 -21 -21 -21 -20 -20 -19 -19 -19 -19 -19 -19 -19 -19 -19 -19 -19 -19 -19 -19 -19 -20 -20 -20 -20 -20 -20 -20 -21 -22 -23 -23 -23 -22 -21 -21 -21 -21 -21 -21 -20 -20 -20 -20 -19 -19 -18 -17 -16 -15 -14 -14 -13 -13 -13 -12 -12 -12 -11 -11 -11
-21 -21 -21 -21 -21 -21 -22 -22 -22 -22 -22 -21 -20 -20 -21 -21 -20 -20 -20 -20 -20 -19 -19 -19 -19 -19 -19 -19 -19 -19 -19 -20 -20 -20 -20 -20 -20 -20 -20 -20 -20 -21 -22 -22 -23 -23 -22 -21 -21 -21 -21 -21 -21 -21 -20 -20 -20 -20 -19 -19 -18 -17 -16 -15 -15 -14 -14 -13 -13 -13 -12 -12 -12 -11
-21 -21 -21 -21 -21 -21 -22 -22 -23 -22 -22 -21 -21 -21 -21 -20 -20 -20 -20 -20 -20 -20 -19 -19 -19 -19 -19 -19 -20 -20 -20 -20 -20 -20 -20 -20 -20 -20 -20 -20 -20 -21 -21 -22 -22 -22 -22 -22 -21 -21 -21 -21 -21 -21 -20 -20 -20 -20 -20 -20 -19 -18 -17 -17 -16 -15 -15 -14 -14 -13 -13 -13 -13 -12
-22 -21 -21 -21 -21 -21 -22 -23 -23 -22 -22 -22 -21 -21 -21 -20 -20 -20 -20 -19 -20 -20 -20 -20 -20 -20 -19 -19 -20 -20 -20 -20 -20 -20 -20 -20 -20 -20 -20 -21 -21 -21 -21 -22 -22 -22 -22 -22 -21 -21 -21 -21 -21 -21 -20 -20 -20 -20 -20 -20 -20 -19 -19 -18 -17 -16 -16 -15 -15 -14 -14 -14 -13 -13
-22 -22 -22 -22 -21 -21 -22 -22 -23 -23 -22 -21 -21 -21 -21 -21 -20 -20 -20 -20 -20 -20 -20 -20 -20 -20 -20 -19 -19 -20 -20 -20 -20 -21 -21 -21 -21 -21 -20 -20 -21 -21 -21 -21 -22 -22 -22 -22 -21 -21 -21 -21 -21 -21 -21 -21 -20 -20 -20 -20 -20 -20 -20 -19 -18 -18 -17 -16 -16 -15 -15 -14 -14 -14
-22 -22 -22 -22 -21 -22 -22 -22 -22 -22 -22 -21 -21 -21 -21 -21 -20 -20 -19 -20 -20 -20 -20 -20 -20 -20 -20 -20 -20 -20 -20 -20 -20 -21 -21 -21 -21 -21 -21 -20 -20 -20 -21 -21 -21 -22 -22 -21 -21 -21 -21 -21 -21 -21 -21 -21 -20 -20 -20 -20 -20 -20 -20 -19 -19 -19 -18 -17 -17 -16 -16 -16 -15 -15
-22 -22 -22 -22 -22 -22 -22 -22 -22 -22 -22 -21 -21 -21 -21 -21 -20 -20 -20 -20 -20 -20 -20 -20 -20 -20 -20 -20 -20 -20 -20 -20 -20 -20 -21 -21 -21 -21 -21 -21 -20 -20 -20 -21 -21 -21 -21 -21 -21 -21 -21 -21 -21 -21 -20 -20 -20 -20 -20 -20 -20 -20 -20 -19 -20 -20 -19 -19 -18 -18 -17 -17 -16 -16
-22 -22 -22 -22 -22 -22 -21 -21 -21 -21 -22 -22 -21 -21 -21 -21 -20 -20 -20 -20 -20 -20 -20 -20 -20 -20 -20 -20 -20 -20 -20 -20 -20 -20 -20 -21 -21 -21 -21 -21 -21 -21 -21 -21 -21 -21 -21 -21 -21 -21 -21 -21 -21 -21 -20 -20 -20 -20 -20 -20 -20 -20 -20 -20 -19 -19 -19 -19 -19 -19 -18 -18 -18 -17
-23 -23 -22 -22 -22 -22 -21 -21 -21 -21 -22 -22 -21 -21 -21 -21 -20 -20 -20 -20 -20 -20 -20 -20 -20 -20 -20 -20 -20 -20 -20 -20 -20 -21 -21 -21 -21 -21 -21 -21 -21 -21 -21 -21 -21 -21 -21 -21 -21 -21 -21 -21 -21 -21 -20 -20 -20 -20 -20 -20 -20 -20 -20 -19 -19 -19 -19 -19 -19 -19 -19 -19 -18 -18
-23 -22 -22 -22 -22 -22 -21 -21 -22 -21 -21 -21 -21 -21 -21 -21 -21 -20 -20 -20 -20 -20 -20 -20 -20 -20 -20 -20 -20 -20 -20 -20 -20 -20 -21 -21 -21 -21 -21 -21 -21 -21 -21 -21 -21 -21 -21 -21 -21 -21 -21 -21 -21 -20 -20 -20 -20 -20 -20 -20 -20 -20 -20 -20 -19 -19 -19 -19 -19 -19 -19 -19 -19 -18
-23 -22 -22 -22 -22 -22 -22 -22 -22 -21 -21 -21 -21 -21 -21 -21 -21 -20 -20 -20 -20 -20 -20 -20 -20 -20 -20 -20 -20 -20 -20 -20 -20 -20 -21 -21 -21 -21 -21 -21 -21 -22 -22 -21 -21 -21 -21 -20 -21 -21 -21 -21 -20 -20 -20 -20 -20 -20 -20 -20 -20 -20 -20 -20 -19 -19 -19 -19 -19 -19 -19 -19 -19 -18
-23 -22 -22 -22 -22 -22 -21 -22 -22 -21 -21 -21 -21 -21 -21 -21 -20 -20 -20 -20 -20 -20 -20 -20 -20 -20 -20 -20 -20 -20 -20 -20 -20 -20 -20 -20 -21 -21 -21 -21 -21 -21 -22 -22 -22 -22 -22 -21 -21 -21 -21 -21 -21 -20 -20 -20 -20 -20 -20 -20 -20 -20 -20 -19 -19 -19 -19 -19 -19 -19 -19 -19 -18 -19
-23 -23 -22 -22 -22 -22 -21 -22 -22 -22 -21 -21 -21 -21 -21 -20 -20 -20 -20 -20 -20 -20 -20 -20 -20 -20 -20 -20 -20 -20 -20 -20 -20 -20 -20 -20 -20 -20 -21 -21 -21 -21 -22 -22 -22 -22 -22 -22 -21 -21 -21 -21 -21 -20 -20 -20 -20 -20 -20 -20 -20 -20 -20 -19 -19 -19 -19 -19 -19 -19 -19 -19 -18 -18
-23 -23 -23 -22 -22 -22 -22 -22 -22 -22 -22 -21 -21 -21 -21 -21 -20 -20 -20 -20 -20 -20 -20 -20 -20 -20 -20 -20 -20 -20 -20 -20 -20 -20 -20 -20 -20 -21 -21 -21 -21 -21 -22 -22 -22 -22 -22 -22 -22 -21 -21 -21 -21 -21 -21 -21 -20 -20 -20 -20 -20 -20 -20 -19 -19 -19 -19 -19 -19 -19 -19 -19 -18 -18
-23 -24 -23 -23 -23 -23 -22 -22 -22 -22 -22 -22 -21 -21 -21 -21 -21 -20 -20 -20 -21 -21 -20 -20 -20 -20 -20 -20 -20 -20 -20 -20 -20 -20 -21 -21 -21 -21 -21 -21 -21 -21 -22 -22 -22 -22 -22 -22 -22 -22 -22 -22 -22 -21 -21 -21 -20 -20 -20 -20 -20 -20 -19 -19 -19 -19 -19 -19 -19 -19 -19 -19 -18 -18
-24 -24 -24 -24 -23 -23 -22 -22 -22 -22 -22 -21 -21 -21 -21 -21 -21 -20 -21 -21 -21 -21 -21 -20 -20 -20 -20 -20 -20 -20 -20 -20 -20 -20 -21 -21 -21 -21 -21 -21 -21 -21 -22 -22 -22 -22 -22 -22 -22 -22 -22 -22 -22 -22 -21 -21 -21 -20 -20 -20 -20 -20 -20 -19 -19 -19 -19 -19 -19 -19 -19 -19 -19 -18
-24 -24 -24 -24 -23 -23 -22 -22 -22 -22 -22 -21 -21 -21 -21 -21 -21 -21 -21 -21 -21 -21 -21 -21 -20 -20 -20 -20 -20 -20 -20 -20 -20 -21 -21 -21 -21 -21 -21 -21 -22 -22 -22 -22 -22 -23 -23 -22 -22 -22 -22 -22 -22 -22 -21 -21 -21 -21 -20 -20 -20 -20 -20 -20 -20 -19 -19 -19 -19 -19 -19 -19 -19 -19
-24 -24 -24 -24 -23 -23 -23 -22 -22 -22 -22 -21 -21 -22 -22 -21 -21 -21 -21 -21 -21 -21 -21 -21 -21 -20 -20 -20 -21 -21 -21 -21 -21 -21 -21 -21 -21 -21 -22 -22 -22 -22 -22 -23 -23 -23 -22 -22 -22 -22 -22 -22 -22 -22 -21 -21 -21 -21 -21 -21 -21 -21 -20 -20 -20 -20 -19 -19 -19 -19 -19 -19 -19 -19
-25 -25 -24 -24 -23 -23 -23 -23 -23 -23 -22 -22 -22 -22 -22 -21 -21 -21 -21 -21 -21 -21 -21 -21 -21 -21 -21 -21 -21 -21 -21 -21 -21 -21 -21 -21 -21 -22 -22 -22 -22 -22 -23 -23 -23 -22 -22 -22 -22 -22 -22 -22 -22 -22 -21 -21 -21 -21 -21 -21 -21 -21 -20 -20 -20 -20 -20 -20 -20 -20 -20 -20 -20 -20
Height
2896 2895 2895 2894 2894 2894 2894 2893 2893 2893 2892 2893 2893 2893 2893 2893 2892 2893 2894 2894 2894 2894 2895 2896 2895 2895 2895 2896 2897 2898 2900 2903 2906 2909 2911 2914 2918 2920 2922 2925 2928 2930 2932 2934 2936 2939 2943 2948 2953 2957 2962 2965 2969 2973 2976 2979 2983 2988 2992 2997 3000 3003 3006 3009 3011 3013 3016 3019 3024 3027 3031 3035 3038 3040
2891 2891 2890 2890 2889 2889 2889 2889 2889 2889 2888 2888 2889 2889 2889 2890 2889 2889 2889 2890 2891 2891 2891 2892 2892 2891 2892 2893 2893 2894 2896 2898 2901 2904 2907 2910 2913 2916 2918 2920 2923 2926 2929 2931 2933 2935 2939 2943 2948 2953 2958 2962 2966 2970 2974 2976 2979 2983 2988 2992 2996 2999 3002 3004 3007 3010 3012 3016 3020 3023 3027 3030 3033 3037
2887 2886 2886 2885 2885 2885 2884 2884 2885 2884 2884 2884 2885 2885 2885 2886 2886 2886 2885 2886 2888 2888 2887 2888 2888 2888 2888 2889 2890 2891 2892 2894 2896 2899 2902 2905 2908 2911 2914 2916 2919 2922 2925 2928 2930 2933 2935 2938 2943 2948 2953 2958 2961 2966 2970 2973 2975 2978 2983 2987 2992 2995 2998 3000 3002 3005 3009 3012 3016 3019 3023 3027 3030 3033
2882 2882 2882 2881 2881 2880 2880 2880 2880 2880 2880 2880 2880 2881 2881 2881 2882 2882 2881 2882 2884 2884 2884 2884 2885 2885 2885 2885 2886 2887 2889 2891 2892 2895 2898 2900 2903 2905 2909 2912 2914 2917 2920 2923 2927 2929 2932 2935 2939 2943 2948 2953 2957 2961 2965 2968 2971 2974 2978 2983 2987 2991 2994 2997 2999 3001 3004 3008 3012 3015 3019 3023 3027 3030
2877 2878 2878 2877 2876 2876 2876 2876 2876 2876 2875 2875 2876 2877 2877 2877 2877 2877 2877 2878 2880 2881 2880 2881 2881 2881 2882 2882 2882 2883 2885 2886 2888 2890 2893 2896 2898 2900 2903 2906 2910 2913 2916 2919 2922 2926 2929 2931 2935 2939 2943 2947 2952 2956 2959 2963 2967 2971 2975 2978 2983 2987 2990 2994 2996 2999 3002 3005 3008 3011 3014 3018 3024 3028
2872 2873 2873 2873 2873 2872 2872 2872 2872 2872 2872 2871 2872 2873 2873 2873 2873 2873 2873 2874 2875 2877 2877 2877 2878 2878 2878 2879 2879 2879 2880 2882 2883 2885 2888 2891 2893 2895 2897 2901 2904 2908 2911 2914 2918 2922 2925 2928 2932 2936 2940 2943 2947 2951 2955 2958 2964 2969 2972 2974 2978 2982 2987 2990 2993 2996 2999 3002 3005 3008 3010 3013 3018 3023
2868 2869 2869 2869 2869 2869 2869 2869 2869 2868 2868 2868 2868 2869 2869 2869 2869 2869 2870 2870 2872 2873 2874 2874 2874 2875 2875 2875 2876 2876 2876 2878 2879 2880 2883 2885 2887 2890 2892 2895 2898 2902 2906 2910 2913 2917 2922 2925 2929 2932 2936 2939 2942 2946 2950 2954 2959 2964 2967 2970 2974 2978 2982 2986 2989 2992 2996 2999 3002 3005 3007 3010 3013 3017
2863 2864 2865 2865 2865 2866 2866 2866 2866 2865 2865 2864 2864 2865 2865 2865 2865 2866 2866 2867 2868 2869 2870 2871 2872 2872 2872 2872 2873 2873 2873 2874 2875 2876 2878 2880 2882 2885 2887 2889 2892 2896 2901 2905 2909 2912 2916 2921 2924 2928 2931 2935 2938 2942 2945 2950 2954 2958 2962 2966 2970 2974 2978 2981 2985 2988 2992 2995 2999 3002 3005 3007 3010 3013
2859 2860 2861 2862 2862 2862 2863 2863 2863 2862 2862 2861 2861 2861 2861 2861 2861 2862 2862 2863 2864 2865 2867 2868 2869 2869 2869 2870 2870 2870 2870 2871 2871 2872 2873 2875 2877 2880 2882 2884 2887 2890 2894 2899 2903 2907 2911 2915 2919 2923 2927 2930 2934 2937 2941 2945 2948 2953 2957 2962 2966 2970 2974 2977 2981 2983 2987 2991 2994 2998 3002 3005 3008 3010
2854 2856 2857 2858 2858 2859 2860 2860 2860 2859 2859 2858 2858 2857 2857 2858 2858 2858 2859 2860 2861 2862 2863 2864 2866 2866 2867 2867 2868 2868 2868 2868 2868 2869 2870 2871 2873 2874 2877 2880 2882 2884 2888 2892 2897 2901 2905 2909 2913 2918 2922 2926 2929 2933 2936 2940 2943 2947 2952 2957 2961 2965 2969 2973 2976 2979 2982 2986 2990 2994 2998 3002 3005 3007
2850 2851 2853 2854 2855 2855 2856 2856 2856 2856 2856 2855 2854 2854 2854 2854 2855 2855 2856 2857 2857 2858 2859 2860 2862 2863 2864 2865 2865 2866 2865 2865 2866 2866 2867 2868 2869 2870 2872 2875 2878 2880 2882 2886 2890 2895 2899 2903 2907 2912 2917 2921 2925 2929 2932 2935 2938 2942 2947 2951 2955 2960 2964 2969 2972 2975 2978 2981 2985 2989 2993 2997 3001 3005
2846 2847 2849 2850 2851 2851 2852 2852 2853 2853 2853 2852 2851 2851 2851 2851 2852 2852 2853 2853 2854 2854 2855 2856 2858 2859 2861 2862 2863 2863 2863 2863 2863 2863 2863 2864 2865 2866 2868 2870 2873 2876 2877 2879 2883 2887 2891 2896 2901 2906 2911 2915 2920 2924 2928 2931 2934 2937 2941 2946 2950 2954 2959 2963 2967 2970 2973 2977 2981 2985 2988 2992 2997 3001
2842 2843 2845 2846 2847 2847 2848 2848 2849 2849 2849 2849 2848 2848 2848 2849 2849 2850 2850 2850 2851 2851 2852 2853 2854 2855 2857 2859 2860 2860 2860 2860 2861 2861 2861 2861 2862 2864 2865 2867 2868 2870 2872 2874 2876 2880 2884 2889 2894 2899 2905 2910 2914 2919 2923 2927 2930 2934 2937 2940 2944 2948 2953 2957 2962 2965 2969 2972 2976 2980 2984 2987 2991 2995
2838 2839 2841 2842 2843 2843 2844 2845 2845 2846 2846 2846 2846 2845 2845 2846 2846 2847 2847 2848 2848 2848 2848 2849 2850 2851 2853 2854 2855 2856 2857 2857 2858 2858 2859 2859 2860 2861 2862 2863 2864 2864 2865 2867 2870 2873 2877 2881 2886 2892 2898 2904 2909 2913 2919 2923 2927 2930 2933 2935 2938 2942 2947 2952 2956 2960 2964 2968 2971 2975 2979 2982 2986 2990
2834 2836 2837 2838 2838 2839 2840 2841 2841 2842 2842 2843 2843 2842 2843 2843 2844 2844 2844 2845 2845 2845 2845 2846 2847 2848 2849 2850 2851 2852 2853 2854 2855 2856 2857 2857 2858 2859 2859 2861 2861 2859 2858 2861 2864 2867 2871 2875 2879 2885 2891 2897 2903 2908 2913 2918 2922 2925 2928 2931 2934 2937 2941 2946 2951 2955 2959 2963 2966 2970 2973 2977 2980 2984
2829 2832 2833 2833 2834 2835 2836 2837 2837 2838 2839 2839 2840 2840 2840 2841 2841 2841 2842 2842 2842 2842 2843 2843 2844 2844 2845 2845 2846 2848 2849 2850 2852 2853 2854 2856 2857 2858 2857 2857 2857 2855 2854 2856 2858 2861 2867 2870 2872 2877 2883 2889 2895 2902 2907 2911 2916 2920 2923 2927 2930 2934 2937 2941 2946 2951 2955 2958 2962 2965 2967 2970 2974 2978
2824 2827 2829 2830 2830 2831 2832 2833 2834 2835 2835 2836 2837 2837 2837 2838 2839 2839 2839 2840 2840 2840 2840 2840 2840 2841 2841 2842 2843 2844 2845 2847 2849 2850 2852 2854 2855 2856 2855 2855 2855 2853 2851 2852 2853 2856 2860 2863 2865 2870 2876 2881 2888 2894 2899 2904 2908 2914 2918 2921 2925 2929 2933 2936 2940 2945 2950 2953 2956 2959 2962 2965 2968 2972
2819 2822 2824 2826 2826 2827 2828 2829 2831 2831 2832 2833 2834 2834 2835 2835 2836 2836 2837 2837 2837 2838 2838 2838 2838 2838 2839 2839 2840 2841 2842 2844 2846 2848 2850 2851 2852 2853 2853 2853 2852 2851 2849 2849 2850 2852 2854 2858 2861 2866 2869 2874 2880 2886 2891 2897 2902 2906 2911 2916 2920 2924 2928 2931 2935 2939 2944 2948 2951 2954 2957 2960 2963 2966
2815 2817 2820 2821 2822 2823 2824 2825 2827 2828 2828 2829 2830 2831 2832 2833 2833 2834 2835 2835 2835 2836 2836 2836 2836 2836 2836 2837 2837 2838 2840 2841 2843 2845 2846 2848 2849 2849 2850 2850 2850 2849 2848 2846 2846 2848 2851 2853 2856 2860 2864 2868 2874 2880 2885 2890 2895 2900 2905 2910 2915 2918 2922 2926 2930 2933 2937 2942 2946 2950 2953 2955 2958 2961
2810 2813 2815 2817 2818 2819 2821 2822 2823 2824 2825 2826 2827 2828 2829 2830 2831 2832 2832 2833 2833 2834 2834 2834 2834 2834 2834 2834 2835 2836 2838 2839 2840 2841 2843 2844 2845 2846 2846 2846 2846 2846 2846 2844 2843 2845 2848 2849 2851 2856 2860 2864 2868 2873 2878 2882 2888 2893 2899 2904 2909 2913 2917 2921 2925 2928 2932 2936 2940 2944 2948 2951 2954 2957
2806 2808 2810 2812 2814 2815 2817 2818 2819 2820 2822 2823 2824 2825 2826 2827 2828 2829 2830 2830 2831 2832 2832 2832 2832 2832 2832 2833 2833 2834 2835 2837 2838 2839 2840 2841 2842 2842 2843 2843 2843 2843 2843 2842 2842 2842 2844 2847 2849 2851 2855 2859 2862 2866 2870 2875 2880 2886 2892 2897 2902 2907 2912 2916 2920 2923 2927 2930 2934 2938 2942 2946 2949 2952
2801 2804 2806 2808 2809 2811 2813 2814 2816 2817 2818 2820 2822 2822 2823 2824 2826 2827 2827 2828 2829 2829 2830 2830 2830 2831 2831 2831 2831 2832 2833 2834 2835 2837 2838 2838 2839 2840 2840 2840 2840 2840 2840 2841 2841 2841 2843 2846 2847 2849 2852 2855 2858 2862 2865 2869 2874 2878 2883 2889 2895 2900 2905 2910 2914 2918 2921 2925 2929 2932 2935 2939 2942 2945
2796 2800 2802 2803 2805 2807 2810 2811 2812 2814 2815 2817 2819 2819 2820 2822 2823 2824 2824 2825 2826 2827 2828 2828 2828 2829 2829 2830 2830 2831 2832 2832 2833 2835 2836 2836 2837 2838 2838 2838 2838 2838 2839 2840 2840 2840 2842 2845 2846 2848 2851 2852 2855 2858 2862 2865 2868 2872 2876 2881 2887 2893 2898 2903 2907 2911 2915 2919 2923 2927 2930 2933 2936 2939
2792 2795 2797 2799 2801 2804 2806 2808 2809 2811 2813 2815 2816 2816 2818 2820 2820 2820 2821 2822 2824 2824 2825 2826 2826 2827 2827 2828 2829 2829 2830 2831 2832 2833 2834 2835 2835 2836 2837 2837 2837 2837 2838 2838 2838 2840 2842 2844 2845 2848 2850 2851 2854 2856 2858 2861 2864 2867 2870 2875 2881 2886 2892 2896 2901 2905 2909 2913 2917 2920 2924 2927 2930 2934
2787 2790 2793 2795 2797 2800 2803 2805 2806 2808 2810 2812 2813 2814 2815 2817 2817 2816 2818 2820 2821 2822 2823 2824 2824 2825 2826 2826 2827 2828 2829 2829 2830 2832 2833 2833 2834 2835 2836 2836 2836 2837 2837 2837 2838 2840 2842 2844 2845 2848 2850 2851 2853 2854 2856 2857 2859 2862 2866 2871 2875 2880 2885 2890 2894 2899 2902 2906 2910 2914 2918 2922 2925 2929
2783 2786 2789 2792 2794 2797 2799 2801 2803 2805 2807 2809 2810 2812 2813 2814 2814 2814 2816 2818 2818 2820 2821 2822 2822 2823 2824 2825 2826 2826 2827 2828 2829 2830 2831 2832 2832 2833 2834 2835 2836 2836 2837 2837 2838 2840 2842 2844 2845 2847 2849 2851 2852 2854 2855 2856 2858 2860 2863 2866 2870 2875 2879 2883 2888 2892 2895 2899 2903 2907 2911 2915 2919 2923
2779 2782 2785 2788 2790 2793 2796 2798 2800 2802 2804 2805 2807 2809 2810 2811 2811 2812 2814 2815 2816 2817 2818 2819 2820 2821 2822 2823 2824 2825 2826 2826 2827 2828 2829 2830 2830 2831 2833 2834 2835 2836 2836 2837 2838 2840 2841 2843 2844 2846 2848 2850 2851 2852 2854 2856 2857 2858 2860 2863 2867 2871 2874 2878 2881 2884 2887 2891 2896 2900 2904 2908 2912 2916
2774 2778 2781 2784 2787 2790 2793 2795 2797 2799 2800 2802 2804 2806 2807 2807 2809 2810 2812 2813 2814 2815 2816 2817 2818 2819 2820 2821 2822 2823 2824 2824 2825 2826 2827 2828 2828 2830 2831 2832 2834 2835 2835 2836 2838 2839 2841 2843 2844 2845 2847 2848 2850 2851 2853 2855 2856 2857 2858 2861 2863 2866 2870 2873 2875 2877 2880 2885 2889 2893 2897 2901 2906 2910
2769 2773 2777 2780 2783 2786 2789 2792 2794 2795 2797 2798 2801 2803 2803 2805 2806 2808 2809 2811 2812 2813 2814 2815 2816 2817 2817 2818 2820 2821 2821 2822 2822 2823 2825 2826 2827 2828 2829 2831 2832 2834 2835 2836 2837 2839 2841 2842 2843 2845 2846 2847 2848 2850 2852 2854 2855 2856 2857 2858 2859 2862 2866 2868 2870 2872 2875 2879 2883 2887 2891 2895 2899 2903
2763 2768 2772 2775 2779 2782 2785 2787 2789 2791 2793 2795 2797 2799 2801 2802 2804 2805 2807 2808 2809 2810 2812 2812 2813 2814 2815 2815 2817 2818 2819 2819 2820 2821 2823 2824 2825 2826 2827 2829 2830 2832 2833 2835 2836 2838 2839 2841 2843 2844 2845 2846 2848 2849 2850 2851 2852 2854 2855 2857 2858 2860 2861 2863 2865 2868 2871 2874 2877 2881 2885 2889 2893 2896
2757 2762 2767 2770 2774 2778 2781 2783 2785 2787 2789 2791 2793 2796 2798 2800 2801 2803 2804 2806 2807 2808 2809 2810 2811 2812 2812 2813 2814 2815 2816 2817 2818 2819 2820 2821 2822 2824 2825 2826 2828 2830 2831 2833 2834 2836 2838 2840 2841 2842 2844 2845 2846 2848 2849 2849 2850 2852 2853 2855 2857 2858 2859 2860 2862 2864 2867 2870 2873 2876 2879 2883 2886 2890
2753 2758 2763 2766 2770 2773 2776 2778 2780 2782 2784 2787 2790 2793 2795 2797 2798 2800 2801 2803 2804 2806 2807 2807 2808 2809 2810 2811 2811 2812 2813 2814 2815 2817 2818 2819 2820 2821 2822 2823 2825 2827 2829 2831 2832 2834 2836 2837 2839 2840 2842 2843 2845 2846 2847 2848 2849 2850 2852 2854 2856 2857 2858 2859 2860 2861 2864 2866 2869 2872 2874 2877 2881 2883
2750 2754 2758 2761 2764 2768 2771 2773 2774 2777 2781 2784 2787 2789 2792 2794 2796 2797 2799 2800 2802 2803 2804 2805 2806 2807 2808 2808 2809 2810 2811 2812 2813 2814 2815 2816 2817 2818 2819 2820 2822 2825 2827 2828 2830 2832 2834 2835 2837 2838 2840 2841 2843 2844 2845 2846 2848 2849 2851 2853 2854 2855 2857 2858 2859 2861 2863 2864 2866 2868 2870 2873 2876 2878
2745 2749 2753 2756 2760 2764 2767 2769 2771 2775 2778 2781 2783 2786 2789 2791 2792 2794 2796 2798 2799 2800 2801 2802 2803 2804 2805 2806 2807 2807 2808 2809 2810 2812 2813 2814 2815 2816 2816 2818 2819 2822 2824 2826 2828 2830 2831 2833 2834 2836 2837 2839 2840 2842 2843 2845 2847 2849 2850 2851 2853 2854 2855 2856 2858 2860 2861 2863 2864 2866 2868 2870 2872 2874
2738 2742 2747 2751 2756 2760 2763 2766 2769 2772 2775 2777 2780 2783 2785 2787 2789 2791 2793 2795 2796 2798 2798 2799 2800 2801 2802 2803 2804 2804 2805 2807 2808 2809 2810 2811 2812 2813 2814 2815 2816 2818 2820 2823 2825 2826 2828 2830 2832 2833 2834 2836 2837 2839 2841 2843 2845 2847 2849 2850 2852 2853 2854 2855 2857 2859 2860 2861 2863 2864 2866 2868 2870 2871
2732 2737 2742 2748 2752 2755 2759 2762 2766 2768 2771 2774 2777 2779 2782 2784 2786 2788 2790 2792 2793 2795 2795 2796 2797 2798 2799 2800 2801 2802 2803 2803 2804 2805 2806 2807 2809 2810 2811 2812 2814 2815 2816 2818 2821 2823 2824 2826 2829 2830 2831 2833 2834 2836 2839 2841 2843 2845 2847 2849 2850 2852 2853 2854 2855 2857 2858 2859 2861 2863 2865 2866 2868 2869
2727 2733 2739 2744 2748 2751 2755 2759 2762 2765 2768 2771 2773 2776 2778 2781 2783 2785 2787 2789 2790 2791 2793 2794 2795 2796 2797 2798 2798 2799 2800 2801 2801 2802 2803 2804 2806 2807 2808 2809 2811 2812 2813 2814 2817 2819 2820 2822 2825 2827 2828 2829 2830 2833 2836 2838 2840 2842 2844 2846 2848 2850 2851 2852 2854 2855 2856 2858 2859 2861 2863 2864 2866 2867
2724 2730 2736 2740 2744 2748 2752 2756 2759 2762 2765 2768 2770 2773 2775 2778 2780 2782 2784 2786 2787 2788 2790 2791 2792 2793 2794 2795 2796 2797 2797 2798 2799 2800 2801 2802 2803 2804 2805 2806 2808 2809 2811 2811 2813 2814 2816 2817 2819 2822 2824 2825 2827 2829 2832 2835 2837 2840 2842 2844 2846 2847 2848 2850 2852 2853 2855 2856 2858 2859 2861 2862 2864 2865
2721 2727 2732 2737 2740 2744 2748 2752 2756 2759 2762 2765 2768 2770 2772 2774 2777 2779 2781 2782 2784 2785 2787 2788 2789 2790 2791 2792 2793 2794 2795 2796 2796 2797 2798 2799 2800 2801 2802 2803 2804 2806 2807 2808 2809 2811 2812 2813 2815 2818 2820 2822 2823 2826 2829 2831 2834 2837 2840 2841 2843 2844 2846 2847 2849 2851 2852 2854 2856 2857 2858 2860 2861 2862
2718 2723 2728 2733 2737 2740 2744 2749 2753 2757 2760 2762 2765 2767 2769 2771 2774 2776 2778 2780 2781 2783 2784 2785 2787 2788 2789 2790 2791 2791 2792 2793 2794 2795 2796 2797 2798 2798 2799 2800 2801 2802 2804 2805 2806 2807 2808 2810 2812 2814 2817 2819 2821 2823 2825 2827 2830 2833 2836 2838 2840 2841 2842 2844 2847 2849 2850 2852 2853 2855 2856 2857 2859 2860
2715 2720 2724 2729 2732 2736 2741 2746 2750 2754 2757 2759 2762 2764 2766 2768 2770 2773 2775 2777 2778 2780 2781 2782 2784 2785 2786 2787 2788 2789 2790 2790 2791 2792 2793 2794 2795 2796 2797 2797 2798 2799 2800 2801 2803 2804 2806 2808 2810 2812 2814 2816 2817 2819 2821 2823 2826 2829 2832 2834 2836 2837 2839 2841 2844 2845 2847 2849 2850 2852 2853 2854 2856 2857
2712 2716 2721 2725 2729 2734 2739 2743 2747 2750 2753 2756 2759 2761 2763 2765 2767 2770 2772 2774 2775 2777 2778 2780 2781 2782 2783 2784 2785 2786 2787 2788 2789 2790 2791 2792 2793 2794 2794 2795 2796 2796 2797 2799 2800 2802 2804 2806 2808 2809 2810 2812 2813 2815 2818 2820 2823 2825 2828 2831 2833 2834 2836 2838 2840 2842 2844 2846 2847 2848 2849 2851 2852 2853
2709 2714 2718 2723 2728 2732 2736 2739 2743 2747 2750 2753 2756 2758 2760 2762 2765 2767 2769 2771 2773 2774 2776 2777 2778 2779 2781 2782 2783 2784 2785 2786 2787 2788 2789 2790 2791 2792 2792 2793 2793 2794 2795 2797 2799 2800 2802 2803 2805 2807 2808 2809 2811 2813 2815 2818 2820 2822 2825 2828 2830 2830 2832 2834 2836 2838 2840 2842 2843 2844 2846 2847 2848 2850
2708 2711 2715 2720 2724 2728 2732 2736 2740 2743 2746 2749 2752 2755 2757 2759 2762 2764 2766 2768 2770 2772 2773 2775 2776 2777 2778 2779 2780 2781 2783 2784 2785 2786 2787 2788 2789 2790 2790 2791 2792 2792 2794 2795 2796 2798 2799 2802 2803 2805 2806 2807 2809 2811 2813 2816 2818 2819 2821 2824 2826 2827 2829 2831 2833 2835 2836 2838 2839 2840 2842 2843 2845 2846
2706 2709 2713 2716 2721 2725 2729 2733 2737 2740 2743 2746 2749 2752 2754 2756 2759 2761 2764 2766 2767 2769 2770 2772 2773 2774 2775 2777 2778 2779 2780 2781 2782 2784 2785 2786 2787 2788 2788 2789 2790 2791 2792 2793 2794 2796 2798 2800 2801 2803 2804 2805 2807 2809 2811 2813 2815 2816 2819 2821 2822 2824 2826 2828 2829 2831 2833 2834 2836 2837 2838 2840 2841 2842
Wind_Speed
37 37 36 35 34 34 34 35 35 35 36 35 36 36 36 36 37 35 32 30 30 30 29 27 28 29 29 28 29 30 30 32 37 39 42 44 44 44 44 45 44 42 37 32 32 39 48 54 57 60 59 52 45 41 40 41 43 42 37 37 40 41 41 39 37 36 36 34 32 33 35 36 37 39
37 36 35 34 33 32 33 33 33 34 35 34 34 35 35 35 35 35 33 30 28 29 28 27 28 29 29 29 29 30 30 31 33 36 39 42 44 45 45 46 45 44 42 36 32 34 43 52 56 60 62 62 59 51 42 38 38 37 34 32 33 37 43 45 42 39 37 35 32 30 32 35 36 37
36 35 34 33 32 32 32 32 32 33 34 34 33 34 34 34 34 34 34 32 28 28 28 27 27 28 29 29 29 30 31 31 32 34 37 40 43 45 46 46 47 46 45 41 36 33 37 46 53 59 61 63 64 63 55 49 47 44 42 39 32 31 35 41 45 44 40 37 35 33 33 37 38 37
36 35 33 32 31 31 31 31 31 31 31 32 32 32 33 33 33 33 34 32 28 27 28 27 27 28 28 29 30 30 31 31 32 32 35 37 40 44 46 47 47 47 47 45 41 37 35 40 47 54 60 62 63 64 61 59 58 55 51 48 44 36 30 31 37 44 45 43 40 39 39 40 40 39
35 34 32 32 31 30 30 29 28 28 29 29 29 29 31 31 31 31 32 31 29 27 28 28 27 28 28 29 29 30 31 31 32 32 33 35 37 41 45 47 48 48 48 47 45 41 38 38 42 49 56 61 63 62 60 59 62 61 57 54 50 46 41 33 29 32 38 43 44 44 43 43 44 44
34 33 31 31 30 29 28 27 26 26 26 27 27 28 29 29 29 30 30 29 28 27 27 28 28 27 28 28 29 30 31 31 33 33 32 33 35 38 42 46 48 49 49 49 48 46 43 40 41 45 51 57 60 60 58 57 60 62 60 57 53 48 46 45 39 31 28 33 40 43 45 46 46 46
33 32 30 29 28 27 26 25 24 24 24 26 27 27 28 28 28 28 28 28 27 26 26 26 27 27 28 28 28 30 31 31 32 33 33 33 34 36 39 44 48 49 50 51 51 49 47 44 42 43 48 53 55 57 56 54 56 58 58 57 55 51 48 48 49 46 38 31 30 34 40 46 47 46
32 31 30 29 28 26 25 23 23 23 23 25 26 26 27 27 27 27 27 27 25 25 24 24 25 27 27 28 28 29 31 31 32 33 34 34 34 35 37 41 46 49 50 51 52 52 50 48 45 44 46 50 53 54 54 53 52 53 54 55 55 53 50 49 50 51 50 44 36 29 30 37 44 47
31 30 29 28 28 26 25 24 24 24 23 23 24 25 25 25 26 26 27 26 25 24 23 23 24 25 26 27 28 29 31 32 32 33 34 34 34 35 36 39 43 47 50 52 52 53 53 51 48 46 46 48 51 53 53 53 52 50 50 52 53 53 51 49 49 50 51 51 49 43 35 31 34 40
30 30 29 29 29 28 26 26 26 25 24 23 22 23 23 23 24 25 25 26 25 24 23 22 22 23 25 26 27 28 30 31 32 33 34 34 35 35 35 37 40 44 48 51 53 53 55 54 52 49 48 47 49 51 52 52 53 51 50 49 50 51 50 49 48 49 51 52 53 52 49 42 34 33
31 30 29 29 29 29 28 28 27 26 25 23 21 21 22 23 23 24 24 25 25 24 23 22 21 22 24 25 26 27 28 30 31 32 34 34 34 35 36 36 38 42 46 49 52 54 55 56 55 52 50 49 49 50 51 52 53 53 51 50 50 50 50 49 48 47 48 50 51 52 53 52 45 36
31 30 29 29 29 29 30 29 28 27 25 23 21 20 21 22 22 22 23 23 24 23 22 21 22 22 23 25 25 26 28 29 30 32 33 34 34 35 36 36 36 39 43 46 49 52 55 56 57 55 53 51 50 50 51 51 52 52 52 51 51 52 51 49 49 48 48 48 49 49 49 51 52 47
32 31 29 29 29 30 30 30 28 27 26 24 21 20 20 20 20 20 21 22 22 22 22 21 22 23 24 24 25 27 28 29 29 31 32 33 34 35 35 35 36 37 39 43 46 50 53 55 57 58 56 54 52 52 51 51 51 52 53 51 50 51 51 51 50 49 49 48 48 48 48 48 50 51
33 32 30 29 29 30 30 29 28 27 26 24 21 20 19 19 20 20 20 21 21 22 22 22 23 24 24 25 26 27 28 28 29 29 30 31 32 33 34 34 35 37 39 41 44 47 51 54 57 58 58 57 55 54 53 52 52 52 53 52 50 48 48 49 49 49 50 50 50 49 48 47 47 49
34 32 30 29 29 30 30 29 27 27 26 24 22 20 19 19 19 19 20 20 21 21 21 22 23 23 24 25 26 26 26 27 28 28 28 29 29 30 33 33 34 36 39 40 42 45 48 53 56 59 60 60 58 57 55 54 53 53 54 54 53 50 47 46 47 48 49 49 50 50 49 48 48 48
34 33 30 30 30 30 29 29 27 26 25 24 22 19 18 18 19 19 19 20 20 20 20 21 22 23 24 24 25 25 25 25 26 26 25 26 26 28 30 32 33 35 37 39 41 43 45 49 54 58 61 62 62 60 58 57 56 55 55 55 55 54 51 47 45 46 47 48 48 49 49 49 49 49
33 32 31 30 30 29 29 29 27 26 25 25 23 19 17 17 18 18 19 19 19 19 19 20 21 22 23 23 23 24 25 24 23 23 22 23 24 25 27 29 30 33 36 37 38 40 42 44 50 54 58 62 64 64 62 61 59 57 56 57 57 56 56 53 49 46 46 47 47 48 48 48 49 49
33 32 30 30 30 29 29 29 27 26 26 25 23 20 17 16 17 18 18 18 18 18 18 18 20 22 22 22 22 23 23 22 20 20 20 20 21 22 23 26 27 29 33 34 35 37 39 40 44 49 53 58 63 66 65 64 62 61 59 59 58 58 58 57 55 51 48 47 47 47 47 47 48 49
33 31 30 30 30 29 29 29 27 27 26 26 23 20 17 16 17 17 17 18 17 17 17 18 19 20 20 20 21 21 20 19 18 18 18 19 19 20 21 23 25 26 29 32 33 34 34 35 39 42 46 52 58 63 66 66 64 63 62 60 59 59 58 58 57 55 52 50 49 48 48 47 47 48
34 31 30 29 30 30 28 28 27 27 26 25 23 21 19 18 18 17 17 18 17 15 16 18 18 19 19 19 20 20 18 17 17 18 18 17 17 18 19 20 22 24 26 29 31 31 31 33 36 37 40 46 51 56 61 64 64 63 62 61 60 59 59 58 58 57 56 53 51 50 49 48 47 48
35 32 30 29 30 30 28 27 27 26 24 23 22 21 21 20 19 19 19 19 18 16 16 16 17 18 18 19 20 19 17 16 17 17 16 15 15 15 16 18 20 21 24 26 28 29 29 28 31 32 33 39 45 49 54 59 63 63 62 62 62 61 60 60 59 58 57 56 55 53 51 50 49 48
36 32 30 29 30 29 28 27 27 26 22 21 21 21 22 22 20 20 21 21 18 17 16 16 16 16 17 18 19 19 17 17 18 16 15 15 14 13 13 15 17 19 21 22 24 26 24 22 25 27 27 31 37 43 47 52 57 61 61 61 62 63 63 62 61 61 59 58 58 57 55 54 52 51
37 33 31 30 30 29 27 27 27 26 22 20 21 22 22 20 19 20 23 22 20 17 16 16 16 15 15 16 17 17 18 18 17 15 14 14 13 11 11 12 14 16 17 18 21 22 17 13 15 18 20 24 28 33 39 44 49 54 58 59 60 61 62 63 63 62 62 61 60 59 58 57 57 56
37 35 32 31 30 29 27 27 27 26 23 21 22 23 20 17 18 22 23 22 20 18 17 17 17 16 14 14 14 15 17 19 18 16 14 14 13 11 11 11 11 13 14 16 18 17 12 8 7 8 9 14 17 20 26 34 39 45 51 54 56 58 59 61 63 63 63 63 62 61 60 59 59 59
38 36 34 31 30 29 27 27 28 27 24 22 23 23 19 17 20 23 22 21 20 19 17 17 17 17 15 13 12 13 15 17 18 17 15 15 15 12 11 11 10 9 10 14 15 14 11 8 8 8 6 7 11 12 16 22 29 35 42 48 52 55 56 57 60 62 63 63 64 63 63 62 61 60
39 37 34 32 30 28 27 27 28 28 26 24 24 22 18 18 21 22 21 20 19 18 17 17 17 17 17 15 12 11 12 14 15 16 15 15 16 14 12 11 8 5 8 13 14 13 12 10 10 10 8 7 9 11 13 16 19 23 31 38 45 50 54 55 56 58 60 62 63 64 64 64 63 62
39 37 35 33 30 29 28 28 28 29 28 27 25 22 19 19 22 21 19 18 17 16 16 17 17 17 18 17 14 12 12 13 14 14 14 15 16 15 13 11 8 6 11 15 16 15 16 16 13 11 10 8 9 12 15 14 13 15 21 28 34 40 47 51 52 53 55 57 60 62 64 65 66 65
40 38 37 34 30 29 29 28 28 29 30 29 25 21 21 21 22 20 18 17 16 16 15 15 16 17 18 18 16 15 14 14 15 15 15 15 16 16 14 13 11 10 13 17 19 18 18 20 16 12 13 12 10 12 15 14 14 14 16 19 25 31 36 42 46 48 50 52 54 57 59 61 63 65
41 40 38 34 31 30 30 28 29 31 32 30 26 23 23 22 21 20 18 17 17 16 15 14 15 16 17 18 17 17 17 18 18 17 16 16 16 16 15 14 13 13 14 18 21 19 19 21 19 16 17 17 14 13 15 14 14 16 15 15 19 24 27 32 37 40 44 46 49 51 53 54 56 59
42 40 39 37 34 32 32 31 32 33 33 32 29 25 24 23 21 20 19 17 17 16 15 15 15 15 17 18 18 19 20 21 21 20 19 18 17 16 16 16 16 16 16 20 23 23 21 22 22 21 21 20 18 18 18 17 16 18 18 15 14 16 20 24 28 32 36 39 42 45 47 49 51 53
44 42 41 39 35 33 34 34 33 34 35 34 30 27 25 24 23 21 19 18 17 17 16 16 15 15 17 18 19 20 22 23 23 22 22 21 20 19 18 18 18 18 19 21 24 27 25 23 23 23 22 22 22 21 20 21 19 18 17 16 14 14 16 18 22 25 29 32 35 38 40 43 45 47
44 43 41 39 36 35 35 35 35 37 38 35 31 28 28 26 24 22 20 18 17 17 18 18 17 16 17 18 20 21 22 23 24 24 24 24 24 23 23 21 19 19 21 23 25 27 28 26 24 24 23 22 23 22 22 23 21 18 16 16 17 18 17 16 18 20 21 25 28 31 34 36 39 41
43 42 41 41 39 37 37 38 40 40 37 35 32 31 29 27 25 23 20 19 18 18 19 19 18 18 18 19 19 21 22 24 24 25 26 26 27 27 27 25 22 20 20 23 25 27 29 28 26 26 25 24 23 23 24 23 22 20 19 18 18 19 20 19 18 16 17 19 22 24 27 30 33 35
42 43 43 42 40 37 38 39 39 37 35 35 34 32 30 29 26 23 21 20 19 19 19 20 19 19 19 20 20 21 22 23 24 25 26 27 28 29 29 28 27 24 22 22 24 26 28 29 29 28 27 27 26 25 25 24 22 20 21 21 19 19 21 21 20 17 17 19 20 20 22 25 27 29
45 46 45 44 41 38 38 37 35 34 35 36 34 32 31 30 27 24 22 21 20 19 20 20 19 20 20 20 20 20 21 21 23 25 27 28 28 29 29 29 29 29 27 25 25 25 27 29 30 31 30 29 29 28 27 26 24 21 20 21 20 19 20 21 21 19 20 20 20 19 19 20 22 23
47 48 46 43 41 39 37 35 34 35 36 35 33 33 32 30 28 25 22 21 20 20 20 19 19 20 20 20 20 20 20 21 22 23 26 28 28 29 29 29 30 30 30 29 27 27 29 29 30 31 32 32 32 31 29 27 26 25 22 22 21 20 20 20 20 20 20 21 20 19 18 18 19 19
47 47 44 43 42 41 37 34 34 35 34 33 33 32 31 30 28 25 22 21 21 20 19 19 20 20 20 20 20 20 20 21 22 23 24 26 27 28 28 29 30 30 30 29 27 27 30 31 31 32 33 34 35 34 32 29 29 28 25 23 22 22 21 21 20 20 20 20 19 19 18 17 16 16
45 46 44 43 43 41 38 35 34 33 32 32 32 31 30 30 27 24 23 22 21 20 19 19 20 21 21 20 20 19 20 20 20 20 21 22 23 25 26 27 29 30 29 28 27 26 26 29 31 32 34 36 36 35 34 33 31 29 27 25 24 23 22 22 21 20 20 19 18 18 17 16 15 15
43 44 43 43 43 42 39 36 33 32 31 31 31 30 30 29 26 24 23 22 21 20 20 20 21 21 21 20 19 18 18 18 17 17 17 18 19 20 22 23 26 29 30 30 29 27 25 26 28 30 32 36 37 35 34 34 33 30 28 27 27 26 24 23 22 21 20 19 18 18 17 17 16 16
41 43 43 42 42 42 41 37 33 32 31 30 30 29 29 27 26 25 23 21 20 20 20 21 21 22 21 20 19 18 17 16 15 15 15 16 17 18 18 20 22 25 27 27 28 28 27 25 24 24 26 30 33 33 32 32 33 32 31 30 29 29 29 26 24 23 23 22 21 20 19 19 19 19
40 42 43 43 43 43 41 37 34 33 32 31 30 29 28 27 26 24 23 21 21 21 21 22 22 21 21 20 19 18 17 17 16 15 15 15 15 15 16 17 19 22 24 25 25 26 25 23 20 19 20 24 28 31 31 30 31 32 33 32 32 32 32 30 27 27 26 25 24 23 23 22 22 22
40 43 44 44 43 41 39 37 36 34 33 32 30 28 27 27 26 24 23 22 22 22 22 22 22 21 21 20 19 18 18 18 17 16 15 15 14 14 15 16 17 19 22 23 22 21 20 19 17 17 18 22 27 29 29 27 27 29 31 32 32 33 33 32 30 29 28 27 26 27 26 25 24 24
39 41 43 43 42 40 39 39 37 36 35 34 32 30 28 28 26 25 24 23 23 23 22 22 22 21 20 20 19 18 18 18 18 17 16 16 14 14 15 15 15 15 17 18 18 18 18 16 16 16 17 20 24 27 26 25 25 26 27 28 29 32 33 32 31 30 29 28 28 28 27 26 26 25
38 40 42 43 42 42 41 39 37 36 35 35 34 32 31 29 27 26 25 25 24 23 23 22 22 20 20 19 19 18 18 18 19 18 18 16 15 14 14 15 14 14 14 16 17 17 17 15 15 17 18 19 21 24 24 23 23 24 24 24 26 28 29 30 30 30 29 29 29 28 28 27 26 25
37 39 40 41 42 41 39 37 35 35 36 36 34 33 32 32 30 28 26 26 25 24 23 23 22 20 20 19 19 19 19 19 19 19 18 16 15 15 15 15 14 14 14 15 17 17 17 17 18 20 20 19 20 22 22 22 22 23 22 22 24 25 26 27 28 28 28 28 28 27 27 26 26 24
Wind_Direction
263 260 259 258 258 258 259 260 262 264 265 266 266 267 268 269 271 271 269 268 269 270 270 269 268 266 265 263 262 261 259 253 249 249 249 248 246 246 244 241 239 237 236 227 212 201 199 201 203 205 205 203 197 187 178 176 179 180 180 184 191 198 201 202 203 209 211 211 213 214 213 215 218 223
262 260 259 258 258 258 259 259 261 263 264 265 265 266 266 266 268 270 269 266 265 267 267 266 266 265 265 264 262 261 260 257 253 250 251 250 248 246 246 244 241 239 237 233 225 211 203 203 205 207 209 210 212 208 195 189 194 194 191 188 184 185 193 198 200 203 206 203 202 203 202 204 209 216
262 260 259 258 258 258 258 259 260 261 263 265 265 265 266 265 265 266 267 265 263 264 265 264 263 264 264 265 263 262 261 260 257 254 252 252 251 248 247 246 243 241 239 236 231 223 210 205 205 208 211 212 214 216 212 208 215 220 218 214 204 188 184 189 193 198 203 202 198 196 197 200 204 209
262 260 259 258 259 259 259 260 261 262 264 265 266 266 266 266 265 264 264 264 262 261 262 262 261 262 263 264 264 263 262 261 260 257 255 254 253 250 248 247 245 244 242 239 235 230 222 211 206 207 211 213 214 217 217 216 219 225 228 227 224 216 202 189 185 190 198 202 199 194 196 200 203 205
262 260 259 258 258 259 260 261 261 263 265 267 267 267 267 267 266 265 265 263 261 258 259 260 260 261 262 263 264 265 264 262 261 260 257 256 255 253 250 247 246 245 244 241 237 234 229 221 212 208 211 214 215 216 219 219 220 223 228 232 232 230 225 216 199 187 189 195 197 196 195 197 201 204
261 259 258 257 257 258 260 261 262 263 266 268 268 267 267 267 266 266 266 264 261 258 257 258 259 260 262 262 263 264 265 264 263 262 259 257 256 255 252 249 246 245 244 243 240 236 233 228 220 213 212 214 217 218 220 221 221 223 227 231 233 234 232 229 224 213 201 193 192 195 196 196 198 202
258 257 256 255 256 257 258 260 262 263 265 267 268 267 266 266 266 266 266 265 263 259 256 257 258 260 261 262 262 263 265 265 265 264 262 259 258 256 254 251 248 245 244 243 242 239 236 232 227 220 216 215 217 219 221 223 223 224 226 229 232 233 234 235 233 232 228 216 198 192 194 195 198 200
256 254 253 254 255 257 258 260 262 263 265 267 268 268 267 266 265 265 266 266 264 261 257 254 255 257 258 260 261 262 264 265 265 265 264 262 260 258 256 253 250 246 244 243 242 241 239 235 232 227 222 219 219 220 221 223 224 225 226 228 231 232 233 235 237 237 236 232 222 210 200 194 196 199
253 251 251 253 255 257 259 260 261 263 265 267 269 269 268 266 264 264 264 265 264 261 257 252 251 253 256 258 260 262 263 264 264 265 265 264 263 261 259 255 252 249 245 243 241 240 240 238 235 232 228 225 223 222 222 223 224 225 225 226 228 230 232 232 235 238 239 238 234 230 226 213 199 196
250 248 249 253 256 259 260 260 261 263 266 267 268 268 267 264 263 263 264 264 264 262 258 253 250 250 253 255 258 261 262 263 264 264 265 265 264 264 262 258 255 251 247 244 241 240 239 238 237 234 232 230 228 225 224 224 226 226 225 225 226 227 228 229 231 234 237 239 239 237 236 234 221 203
248 247 249 253 257 260 261 260 260 262 265 267 267 265 264 263 262 263 263 264 264 263 259 255 250 249 251 254 255 258 260 262 264 264 264 264 264 264 265 263 258 254 250 246 242 240 238 237 237 235 233 232 231 230 228 227 228 229 228 227 226 226 225 225 227 230 233 236 238 238 237 237 235 224
247 247 250 254 257 260 261 261 260 260 263 266 265 263 262 262 261 261 262 262 263 262 260 257 254 252 251 253 255 256 258 259 261 263 263 263 264 265 267 268 265 258 253 250 245 241 238 236 235 234 233 232 232 232 231 230 230 232 233 232 230 229 228 226 225 226 229 231 233 235 236 236 236 234
248 248 250 254 257 258 259 259 259 258 260 263 263 262 261 261 261 260 259 260 260 261 261 260 259 257 256 255 256 255 256 257 259 261 262 262 263 265 268 270 270 266 259 254 248 243 239 236 234 232 231 231 232 232 232 232 232 232 235 237 236 233 231 230 228 227 227 229 230 231 232 233 234 236
249 249 251 254 256 257 257 257 256 254 256 259 260 260 261 260 260 260 259 259 260 262 264 264 263 263 261 259 257 256 256 256 257 258 260 261 262 265 269 271 272 270 265 258 252 246 242 238 234 232 230 229 231 232 231 232 232 232 234 236 238 238 235 233 231 230 229 230 231 232 232 232 233 234
248 250 252 254 255 256 256 254 252 251 252 255 257 258 260 260 260 260 260 261 262 264 265 266 266 266 264 262 260 258 256 255 256 256 256 257 260 266 271 273 271 269 268 263 256 249 244 240 236 233 230 228 229 230 231 231 231 232 233 234 236 238 238 235 233 233 232 232 233 234 234 234 233 234
246 249 251 254 255 255 255 252 249 248 249 251 253 255 258 259 260 260 261 262 263 265 266 267 267 266 264 263 262 260 257 255 255 255 255 257 262 267 272 274 272 270 270 268 261 253 248 244 240 236 231 228 227 228 229 230 229 230 231 233 234 236 237 237 235 233 233 233 234 235 237 237 236 235
243 247 250 253 254 254 253 251 247 245 245 247 249 251 255 260 260 260 260 261 261 263 265 267 267 266 264 263 262 261 259 256 254 254 256 261 266 270 273 275 274 272 272 271 266 259 253 247 243 239 235 230 227 226 227 228 229 229 229 231 233 234 235 236 236 234 233 234 235 236 237 238 239 238
241 244 248 251 252 252 251 250 246 242 242 243 244 245 249 253 255 256 257 258 260 262 264 265 265 266 266 264 263 262 260 258 255 255 258 263 268 271 272 273 273 272 272 272 268 262 258 253 247 242 239 234 229 227 226 227 228 228 228 229 231 232 234 235 236 235 234 233 234 235 237 238 240 241
239 241 245 249 250 250 249 248 245 240 239 239 240 241 242 244 248 251 253 255 258 262 266 269 268 267 266 264 262 260 258 256 256 258 261 265 269 272 273 272 271 269 269 269 267 262 259 257 251 244 241 238 234 231 229 228 228 228 228 228 228 230 231 233 234 235 235 234 233 232 234 236 238 240
237 238 242 246 249 249 247 246 243 239 236 237 238 239 239 240 243 248 251 252 252 254 260 266 269 269 266 262 260 257 255 254 256 259 263 267 272 276 278 275 271 268 266 265 265 262 257 255 253 248 242 239 237 235 232 231 230 229 229 227 227 227 228 230 231 233 234 234 234 232 232 233 235 237
235 236 239 243 247 248 246 245 242 238 235 236 238 239 240 240 240 244 248 251 251 250 253 259 265 268 267 261 257 254 251 250 253 258 264 269 273 278 282 281 275 267 262 261 261 259 256 254 253 251 245 239 237 236 235 233 232 231 230 229 227 226 226 227 228 230 231 233 234 234 234 233 233 234
234 233 235 238 243 245 244 243 242 240 236 237 239 239 239 240 240 242 247 250 250 250 252 256 261 264 265 261 257 253 249 248 251 257 262 266 271 279 287 286 280 271 264 259 256 256 256 256 255 253 250 245 240 237 235 235 234 233 232 231 229 227 226 226 226 227 228 230 231 233 235 235 235 234
232 232 232 234 238 240 240 240 241 240 239 239 241 238 237 237 238 241 244 247 248 248 249 254 258 260 262 261 258 254 250 249 251 254 259 263 269 279 287 288 284 278 269 257 250 249 253 262 262 258 256 253 248 243 239 236 235 235 234 233 232 230 229 228 227 226 226 227 229 231 232 235 236 236
230 230 230 231 234 236 234 235 238 240 240 239 237 235 231 227 230 236 240 243 246 247 247 251 255 258 259 259 258 255 252 253 254 252 253 259 265 272 280 284 287 283 268 252 244 238 232 238 244 242 254 258 254 252 247 241 237 236 236 235 235 234 232 231 230 229 228 227 228 229 231 233 235 236
228 229 230 230 230 231 229 230 235 239 240 237 232 230 226 220 225 234 238 241 245 247 248 251 256 259 261 259 256 253 252 254 256 256 254 254 257 263 270 275 285 285 258 240 234 225 214 208 204 194 205 240 241 240 246 245 241 237 235 235 235 235 235 234 233 231 230 230 229 229 231 233 234 236
226 227 229 229 228 226 224 225 231 237 240 237 228 221 216 218 227 233 236 239 243 246 249 252 255 259 262 261 258 253 251 251 253 255 254 253 253 254 257 263 274 267 229 220 217 212 198 182 184 194 200 224 232 225 230 241 245 242 236 233 233 235 235 235 235 234 233 232 231 231 231 233 235 236
225 224 227 228 225 221 218 221 228 234 239 238 227 215 210 216 225 231 235 239 243 245 246 249 252 255 258 260 260 255 251 251 250 250 249 249 250 249 246 248 247 218 204 205 206 207 194 181 184 200 204 214 227 219 219 228 238 245 245 238 233 233 234 235 236 236 236 235 234 234 233 234 235 236
223 222 225 226 223 216 214 217 224 230 236 237 229 218 216 219 222 226 229 232 237 241 244 247 250 252 253 255 257 256 255 252 250 248 246 245 247 247 242 238 229 211 202 202 205 208 199 190 195 204 201 206 217 212 211 221 229 239 251 249 240 234 232 233 236 237 237 237 237 237 237 236 236 237
221 221 223 225 222 214 209 212 219 225 232 235 230 223 222 224 224 225 225 227 232 237 241 245 249 253 252 251 250 250 252 253 252 250 248 245 245 243 239 235 227 216 206 203 206 210 204 199 206 211 205 204 206 199 196 204 220 232 241 250 252 247 238 232 233 235 237 238 237 238 238 239 239 239
219 218 220 222 220 211 205 209 217 222 228 232 230 225 224 227 229 229 228 230 234 237 238 240 244 249 252 251 247 242 243 248 251 253 253 251 250 246 240 233 227 219 210 205 207 211 209 207 213 218 214 209 207 201 197 199 210 225 233 238 246 252 248 240 235 233 234 237 238 238 238 238 239 240
217 216 217 220 218 211 206 209 215 221 226 229 228 225 226 227 229 231 232 235 240 242 243 243 243 245 248 250 248 244 242 243 246 249 252 254 255 254 248 239 229 220 213 208 208 212 214 213 215 220 222 219 215 211 209 211 217 224 230 230 227 230 239 246 243 236 233 233 235 236 237 238 239 239
216 215 216 218 217 212 208 209 213 219 223 226 226 226 226 227 228 231 235 240 244 247 248 247 247 247 247 248 248 247 245 243 242 244 247 249 251 253 252 248 239 227 218 212 210 213 217 218 219 222 225 224 222 221 221 222 223 224 223 222 223 223 224 229 237 239 237 234 232 233 234 235 236 237
217 215 216 218 217 214 210 211 215 218 221 223 224 225 226 228 229 232 236 242 247 249 249 249 248 248 248 247 246 246 245 244 243 242 243 246 247 249 252 252 249 242 230 221 216 214 218 222 225 226 227 227 225 226 228 228 227 226 224 222 222 223 222 223 228 232 234 234 233 232 231 231 232 233
216 215 216 218 218 216 214 215 216 217 219 222 223 224 226 229 231 233 236 242 247 248 248 248 247 247 249 248 246 245 243 243 244 244 244 245 246 248 251 253 253 250 243 235 227 220 219 223 228 230 231 231 230 228 228 230 231 228 226 228 228 225 223 226 228 226 223 226 229 230 230 230 231 232
215 214 215 216 216 216 216 217 217 215 218 221 222 223 226 229 232 233 235 240 246 247 247 247 246 247 249 249 249 248 246 243 242 242 243 244 245 246 248 250 252 252 249 245 239 233 227 225 228 232 233 233 234 232 229 230 233 232 228 228 231 230 227 229 230 226 223 226 227 226 227 228 230 232
214 214 214 214 215 216 216 216 216 216 218 220 221 223 225 228 232 233 233 237 243 245 246 246 246 247 247 248 249 250 250 248 245 242 242 242 242 244 245 246 248 251 251 249 246 242 237 231 229 233 235 235 235 235 232 231 234 236 233 229 229 230 229 229 230 228 227 229 230 227 226 226 227 230
214 214 213 214 215 216 214 214 215 216 217 218 220 223 225 227 230 232 233 236 241 244 245 246 247 247 246 246 248 249 250 251 248 245 244 243 242 242 242 243 244 247 250 252 250 246 243 238 233 232 235 237 236 235 234 233 232 234 234 231 230 231 229 226 227 228 228 230 231 230 228 226 225 228
214 213 212 213 215 216 214 212 214 215 216 218 219 221 224 226 227 229 232 236 240 243 244 245 245 245 245 246 248 250 250 249 247 245 245 244 243 242 241 241 241 241 243 247 248 245 245 243 238 232 232 236 238 236 234 233 232 232 234 234 234 236 232 226 226 229 228 227 229 232 232 231 230 233
213 212 212 213 216 217 215 213 212 214 215 217 219 221 223 224 224 225 229 234 239 243 244 244 244 244 244 245 248 251 250 246 243 242 243 243 243 243 241 240 239 237 237 241 244 243 242 243 243 238 233 234 238 239 238 237 234 233 234 235 237 239 238 232 229 232 232 230 231 235 238 239 241 244
210 210 212 213 217 219 217 214 213 214 215 216 218 220 222 223 224 225 228 233 237 241 243 244 244 245 245 245 248 250 248 242 239 240 242 242 241 242 242 241 240 238 238 241 242 241 240 243 248 247 239 235 236 239 241 241 237 234 233 235 236 238 239 237 234 236 237 238 239 242 243 244 246 249
209 209 211 213 216 219 218 216 215 217 217 217 218 219 221 223 225 227 230 233 235 239 242 243 245 246 245 245 246 246 242 239 238 239 240 241 242 243 244 245 245 242 240 239 239 239 241 244 248 248 239 231 230 233 237 238 237 233 231 232 235 237 239 240 239 239 241 243 246 247 247 248 249 251
209 208 211 214 216 217 218 218 218 219 220 220 220 220 221 223 225 227 231 233 235 238 240 242 244 245 244 243 244 242 239 237 237 238 238 239 243 247 249 251 250 244 239 236 235 236 238 240 240 240 234 225 224 229 233 235 236 235 232 231 233 237 239 240 242 243 244 245 248 249 251 252 254 255
209 209 211 214 216 217 217 218 219 221 222 222 222 222 223 224 225 227 231 234 235 237 239 240 241 242 242 241 240 239 237 235 234 235 235 237 242 249 253 255 252 243 232 227 225 225 226 227 230 236 236 228 224 227 231 232 234 236 233 230 232 236 238 240 243 244 246 247 249 252 254 255 256 257
211 211 212 214 215 216 217 219 220 222 223 224 224 224 225 226 227 228 230 233 234 236 237 238 240 240 240 239 238 236 234 231 230 231 234 236 240 246 250 249 244 231 219 215 216 217 216 214 218 230 237 233 226 226 229 229 232 234 232 229 230 234 236 238 240 242 244 246 248 250 252 253 254 254
213 214 215 215 216 217 218 219 221 222 223 224 225 225 226 227 228 228 229 231 232 233 235 237 238 239 238 237 236 234 232 229 228 230 233 236 238 240 243 242 232 218 211 212 213 211 209 208 213 223 231 232 226 224 224 224 226 229 229 227 227 230 232 234 235 237 239 241 243 245 247 248 249 248